SWR16MJ LSZH-EGLL

Flight info

Callsign SWR16MJ
Flight time 1h 17m
Altitude 38000
Route VEBIT T10 TORPA DCT REKLA DCT RLP DCT ROTSI DCT KOTUN DCT NINAL DCT ABNUR DCT DIMAL DCT ALESO
Aircraft B77W/H-SDE1E2E3FGHIJ2J3J4J5M1RWXY/LB1D1

Departure

Time 2026-05-06 18:02
Airport Zürich Airport (LSZH)

Arrival

Time 2026-05-06 19:20
Airport London Heathrow Airport (EGLL)
Time Latitude Longitude Altitude Speed Heading
2026-05-06 17:47 47.46043 8.55644 1404 ft 0 kts
2026-05-06 17:56 47.46040 8.55643 1402 ft 3 kts
2026-05-06 17:56 47.45993 8.55638 1406 ft 2 kts
2026-05-06 17:56 47.45981 8.55636 1405 ft 9 kts
2026-05-06 17:57 47.45956 8.55619 1411 ft 9 kts 279°
2026-05-06 17:57 47.45963 8.55530 1408 ft 8 kts 275°
2026-05-06 17:57 47.45968 8.55453 1406 ft 8 kts 275°
2026-05-06 17:57 47.45973 8.55375 1401 ft 8 kts 275°
2026-05-06 17:58 47.45978 8.55292 1407 ft 9 kts 276°
2026-05-06 17:58 47.45986 8.55194 1397 ft 10 kts 276°
2026-05-06 17:58 47.45993 8.55092 1407 ft 10 kts 274°
2026-05-06 17:58 47.46000 8.54991 1401 ft 10 kts 279°
2026-05-06 17:59 47.46048 8.54922 1407 ft 10 kts 332°
2026-05-06 17:59 47.46111 8.54877 1410 ft 10 kts 334°
2026-05-06 17:59 47.46175 8.54832 1408 ft 10 kts 335°
2026-05-06 17:59 47.46252 8.54778 1408 ft 16 kts 335°
2026-05-06 18:00 47.46371 8.54699 1407 ft 20 kts 335°
2026-05-06 18:00 47.46511 8.54601 1408 ft 31 kts 334°
2026-05-06 18:00 47.46694 8.54474 1406 ft 27 kts 335°
2026-05-06 18:00 47.46852 8.54381 1406 ft 24 kts 335°
2026-05-06 18:01 47.46991 8.54242 1411 ft 24 kts 313°
2026-05-06 18:01 47.46994 8.54041 1410 ft 14 kts 208°
2026-05-06 18:01 47.46885 8.54068 1411 ft 31 kts 156°
2026-05-06 18:01 47.46337 8.54444 1405 ft 145 kts 155°
2026-05-06 18:02 47.45197 8.55238 1970 ft 198 kts 158°
2026-05-06 18:02 47.43968 8.56106 3737 ft 202 kts 156°
2026-05-06 18:02 47.42916 8.57663 4343 ft 230 kts 114°
2026-05-06 18:02 47.42786 8.60060 5039 ft 245 kts 72°
2026-05-06 18:03 47.43698 8.62119 5824 ft 244 kts 32°
2026-05-06 18:03 47.45242 8.62937 6615 ft 235 kts 352°
2026-05-06 18:03 47.46729 8.62199 7379 ft 223 kts 312°
2026-05-06 18:03 47.47487 8.60313 8160 ft 214 kts 273°
2026-05-06 18:04 47.47195 8.58215 8931 ft 215 kts 234°
2026-05-06 18:04 47.46070 8.56731 9642 ft 224 kts 223°
2026-05-06 18:04 47.45190 8.54710 9858 ft 250 kts 251°
2026-05-06 18:04 47.44636 8.52172 10229 ft 275 kts 249°
2026-05-06 18:05 47.43866 8.49385 10475 ft 308 kts 245°
2026-05-06 18:05 47.42950 8.46431 10791 ft 336 kts 244°
2026-05-06 18:05 47.41916 8.43285 11643 ft 347 kts 243°
2026-05-06 18:05 47.40825 8.40049 12662 ft 354 kts 242°
2026-05-06 18:06 47.39713 8.36781 13724 ft 360 kts 242°
2026-05-06 18:06 47.38574 8.33455 14696 ft 366 kts 242°
2026-05-06 18:06 47.37384 8.30102 15629 ft 373 kts 241°
2026-05-06 18:06 47.36156 8.26677 16532 ft 380 kts 241°
2026-05-06 18:07 47.34906 8.23185 17457 ft 387 kts 241°
2026-05-06 18:07 47.33643 8.19638 18346 ft 394 kts 241°
2026-05-06 18:07 47.32355 8.16023 19156 ft 400 kts 241°
2026-05-06 18:07 47.31062 8.12384 20024 ft 404 kts 241°
2026-05-06 18:08 47.29759 8.08690 20891 ft 408 kts 240°
2026-05-06 18:08 47.28483 8.04985 21678 ft 412 kts 244°
2026-05-06 18:08 47.27606 8.00913 22353 ft 424 kts 257°
2026-05-06 18:08 47.27297 7.96561 23124 ft 432 kts 266°
2026-05-06 18:09 47.27545 7.92117 23839 ft 440 kts 275°
2026-05-06 18:09 47.28015 7.87641 24527 ft 443 kts 276°
2026-05-06 18:09 47.28490 7.83144 25215 ft 446 kts 275°
2026-05-06 18:09 47.28946 7.78615 25880 ft 449 kts 275°
2026-05-06 18:10 47.29383 7.74033 26516 ft 452 kts 274°
2026-05-06 18:10 47.29809 7.69404 27152 ft 455 kts 274°
2026-05-06 18:10 47.30244 7.64842 27763 ft 459 kts 275°
2026-05-06 18:10 47.30917 7.60201 28302 ft 467 kts 281°
2026-05-06 18:11 47.31902 7.55600 28850 ft 472 kts 284°
2026-05-06 18:11 47.32947 7.50980 29354 ft 476 kts 284°
2026-05-06 18:11 47.33990 7.46340 29860 ft 479 kts 285°
2026-05-06 18:11 47.35027 7.41654 30210 ft 483 kts 285°
2026-05-06 18:12 47.36060 7.36927 30673 ft 483 kts 285°
2026-05-06 18:12 47.37085 7.32198 31175 ft 483 kts 285°
2026-05-06 18:12 47.38102 7.27496 31763 ft 480 kts 284°
2026-05-06 18:12 47.39111 7.22816 32371 ft 477 kts 284°
2026-05-06 18:13 47.40112 7.18161 32921 ft 475 kts 284°
2026-05-06 18:13 47.41031 7.13490 33454 ft 471 kts 279°
2026-05-06 18:13 47.41744 7.08772 33950 ft 469 kts 278°
2026-05-06 18:13 47.42418 7.04048 34269 ft 472 kts 278°
2026-05-06 18:14 47.43090 6.99294 34569 ft 473 kts 278°
2026-05-06 18:14 47.43758 6.94613 34965 ft 472 kts 279°
2026-05-06 18:14 47.44440 6.89880 35388 ft 470 kts 279°
2026-05-06 18:14 47.45124 6.85161 35781 ft 469 kts 279°
2026-05-06 18:15 47.45810 6.80427 36142 ft 469 kts 279°
2026-05-06 18:15 47.46491 6.75716 36480 ft 469 kts 279°
2026-05-06 18:15 47.47172 6.70991 36825 ft 468 kts 279°
2026-05-06 18:15 47.47833 6.66275 37178 ft 468 kts 278°
2026-05-06 18:16 47.48291 6.61518 37436 ft 467 kts 274°
2026-05-06 18:16 47.48638 6.56737 37739 ft 467 kts 273°
2026-05-06 18:16 47.48966 6.51949 37857 ft 471 kts 273°
2026-05-06 18:16 47.49291 6.47180 37899 ft 472 kts 273°
2026-05-06 18:17 47.49964 6.37559 37893 ft 467 kts 274°
2026-05-06 18:17 47.50643 6.28013 37901 ft 464 kts 274°
2026-05-06 18:18 47.51312 6.18517 37905 ft 464 kts 274°
2026-05-06 18:18 47.51973 6.09012 37906 ft 465 kts 274°
2026-05-06 18:19 47.52624 5.99543 37908 ft 466 kts 274°
2026-05-06 18:19 47.53414 5.90012 37897 ft 468 kts 282°
2026-05-06 18:20 47.56076 5.81170 37909 ft 476 kts 301°
2026-05-06 18:20 47.59664 5.74926 37905 ft 480 kts 310°
2026-05-06 18:21 47.65018 5.66551 37912 ft 481 kts 310°
2026-05-06 18:21 47.69581 5.59268 37908 ft 482 kts 310°
2026-05-06 18:22 47.73343 5.53159 37910 ft 482 kts 310°
2026-05-06 18:22 47.77862 5.45782 37915 ft 482 kts 310°
2026-05-06 18:23 47.82376 5.38398 37914 ft 482 kts 310°
2026-05-06 18:23 47.86881 5.31016 37922 ft 481 kts 310°
2026-05-06 18:24 47.91355 5.23665 37918 ft 481 kts 310°
2026-05-06 18:24 47.95851 5.16282 37904 ft 480 kts 310°
2026-05-06 18:25 48.00342 5.08895 37932 ft 480 kts 310°
2026-05-06 18:25 48.04827 5.01494 37916 ft 480 kts 310°
2026-05-06 18:26 48.09295 4.94097 37916 ft 479 kts 310°
2026-05-06 18:26 48.13769 4.86668 37920 ft 479 kts 310°
2026-05-06 18:27 48.18204 4.79283 37914 ft 480 kts 310°
2026-05-06 18:27 48.22663 4.71839 37908 ft 480 kts 310°
2026-05-06 18:28 48.27123 4.64374 37918 ft 480 kts 310°
2026-05-06 18:28 48.31573 4.56891 37922 ft 480 kts 310°
2026-05-06 18:29 48.35987 4.49432 37920 ft 480 kts 310°
2026-05-06 18:29 48.40422 4.41917 37915 ft 480 kts 310°
2026-05-06 18:30 48.44854 4.34387 37915 ft 480 kts 310°
2026-05-06 18:30 48.49277 4.26852 37929 ft 479 kts 310°
2026-05-06 18:31 48.53687 4.19318 37912 ft 479 kts 310°
2026-05-06 18:31 48.58093 4.11769 37915 ft 479 kts 310°
2026-05-06 18:32 48.62491 4.04211 37917 ft 478 kts 310°
2026-05-06 18:32 48.66852 3.96695 37916 ft 478 kts 310°
2026-05-06 18:33 48.71237 3.89120 37916 ft 478 kts 310°
2026-05-06 18:33 48.75831 3.81841 37925 ft 478 kts 314°
2026-05-06 18:34 48.80604 3.74820 37924 ft 478 kts 314°
2026-05-06 18:34 48.85386 3.67777 37922 ft 478 kts 314°
2026-05-06 18:35 48.90113 3.60740 37921 ft 478 kts 314°
2026-05-06 18:35 48.94862 3.53621 37927 ft 479 kts 314°
2026-05-06 18:36 48.99602 3.46492 37932 ft 479 kts 314°
2026-05-06 18:36 49.04338 3.39351 37931 ft 479 kts 314°
2026-05-06 18:37 49.09039 3.32243 37936 ft 479 kts 314°
2026-05-06 18:37 49.13777 3.25060 37918 ft 479 kts 314°
2026-05-06 18:38 49.18500 3.17876 37929 ft 478 kts 314°
2026-05-06 18:38 49.23183 3.10741 37926 ft 477 kts 314°
2026-05-06 18:39 49.27882 3.03556 37930 ft 477 kts 314°
2026-05-06 18:40 49.34902 2.92783 37929 ft 476 kts 314°
2026-05-06 18:40 49.39586 2.85569 37931 ft 476 kts 314°
2026-05-06 18:41 49.44256 2.78356 37935 ft 475 kts 314°
2026-05-06 18:41 49.48883 2.71189 37936 ft 476 kts 313°
2026-05-06 18:42 49.53534 2.63963 37941 ft 475 kts 314°
2026-05-06 18:42 49.58180 2.56728 37937 ft 475 kts 313°
2026-05-06 18:43 49.63082 2.49898 37945 ft 475 kts 321°
2026-05-06 18:43 49.68365 2.43757 37948 ft 475 kts 322°
2026-05-06 18:44 49.73657 2.37638 37943 ft 475 kts 322°
2026-05-06 18:44 49.78890 2.31503 37943 ft 474 kts 321°
2026-05-06 18:45 49.84132 2.25302 37950 ft 474 kts 321°
2026-05-06 18:45 49.89379 2.19074 37943 ft 474 kts 321°
2026-05-06 18:46 49.94618 2.12842 37952 ft 474 kts 321°
2026-05-06 18:46 49.99811 2.06648 37956 ft 474 kts 321°
2026-05-06 18:47 50.05046 2.00388 37961 ft 474 kts 321°
2026-05-06 18:47 50.10276 1.94114 37963 ft 474 kts 321°
2026-05-06 18:48 50.15497 1.87837 37955 ft 474 kts 321°
2026-05-06 18:48 50.20457 1.81022 37441 ft 481 kts 315°
2026-05-06 18:48 50.22843 1.77379 36890 ft 478 kts 314°
2026-05-06 18:49 50.25180 1.73760 37021 ft 472 kts 314°
2026-05-06 18:49 50.29793 1.66611 36635 ft 463 kts 315°
2026-05-06 18:49 50.32077 1.63096 36073 ft 460 kts 315°
2026-05-06 18:50 50.34366 1.59584 35355 ft 460 kts 315°
2026-05-06 18:50 50.36660 1.56067 34591 ft 462 kts 315°
2026-05-06 18:50 50.38959 1.52541 33943 ft 460 kts 315°
2026-05-06 18:50 50.41234 1.49046 33349 ft 451 kts 315°
2026-05-06 18:51 50.43419 1.45682 32729 ft 443 kts 315°
2026-05-06 18:51 50.45618 1.42294 32120 ft 441 kts 315°
2026-05-06 18:51 50.47804 1.38919 31483 ft 440 kts 315°
2026-05-06 18:51 50.49977 1.35548 30901 ft 438 kts 314°
2026-05-06 18:52 50.52064 1.32067 30263 ft 437 kts 311°
2026-05-06 18:52 50.54101 1.28524 29580 ft 435 kts 311°
2026-05-06 18:52 50.56134 1.25007 28879 ft 433 kts 311°
2026-05-06 18:52 50.58167 1.21538 28204 ft 431 kts 312°
2026-05-06 18:53 50.60260 1.18148 27527 ft 429 kts 314°
2026-05-06 18:53 50.62376 1.14834 26870 ft 427 kts 314°
2026-05-06 18:53 50.64462 1.11593 26240 ft 425 kts 314°
2026-05-06 18:53 50.66561 1.08317 25618 ft 423 kts 314°
2026-05-06 18:54 50.68642 1.05046 25007 ft 421 kts 314°
2026-05-06 18:54 50.70702 1.01790 24414 ft 419 kts 314°
2026-05-06 18:54 50.72768 0.98509 23820 ft 417 kts 314°
2026-05-06 18:54 50.74811 0.95258 23179 ft 415 kts 314°
2026-05-06 18:55 50.76834 0.92033 22548 ft 412 kts 314°
2026-05-06 18:55 50.78845 0.88822 21913 ft 409 kts 314°
2026-05-06 18:55 50.80821 0.85665 21327 ft 406 kts 314°
2026-05-06 18:55 50.82799 0.82503 20768 ft 403 kts 314°
2026-05-06 18:56 50.84763 0.79358 20188 ft 399 kts 314°
2026-05-06 18:56 50.86710 0.76236 19656 ft 396 kts 314°
2026-05-06 18:56 50.88640 0.73138 19154 ft 392 kts 314°
2026-05-06 18:56 50.90539 0.70086 18703 ft 387 kts 314°
2026-05-06 18:57 50.92419 0.67063 18243 ft 383 kts 314°
2026-05-06 18:57 50.94276 0.64072 17720 ft 379 kts 314°
2026-05-06 18:57 50.96115 0.61106 17207 ft 375 kts 314°
2026-05-06 18:57 50.97934 0.58169 16702 ft 371 kts 314°
2026-05-06 18:58 50.99732 0.55262 16210 ft 368 kts 314°
2026-05-06 18:58 51.01493 0.52411 15724 ft 364 kts 314°
2026-05-06 18:58 51.03260 0.49549 15245 ft 361 kts 314°
2026-05-06 18:58 51.05003 0.46722 15009 ft 351 kts 314°
2026-05-06 18:59 51.06680 0.44000 14960 ft 342 kts 314°
2026-05-06 18:59 51.08388 0.41319 14964 ft 347 kts 315°
2026-05-06 18:59 51.10134 0.38673 14959 ft 344 kts 316°
2026-05-06 18:59 51.11868 0.36060 14957 ft 341 kts 316°
2026-05-06 19:00 51.13583 0.33461 14955 ft 340 kts 316°
2026-05-06 19:00 51.15298 0.30847 14978 ft 341 kts 315°
2026-05-06 19:00 51.16982 0.28272 14947 ft 337 kts 315°
2026-05-06 19:00 51.18118 0.26534 14774 ft 333 kts 315°
2026-05-06 19:01 51.20319 0.23157 14251 ft 330 kts 315°
2026-05-06 19:01 51.21966 0.20630 13923 ft 326 kts 315°
2026-05-06 19:01 51.23583 0.18145 13617 ft 321 kts 315°
2026-05-06 19:01 51.25181 0.15685 13285 ft 316 kts 315°
2026-05-06 19:02 51.26750 0.13269 12967 ft 312 kts 315°
2026-05-06 19:02 51.28303 0.10877 12647 ft 308 kts 315°
2026-05-06 19:02 51.29835 0.08513 12322 ft 304 kts 315°
2026-05-06 19:02 51.31325 0.06212 12004 ft 300 kts 315°
2026-05-06 19:03 51.32612 0.03674 11675 ft 292 kts 296°
2026-05-06 19:03 51.33249 0.00628 11407 ft 288 kts 284°
2026-05-06 19:03 51.33653 -0.02494 11115 ft 286 kts 282°
2026-05-06 19:03 51.34006 -0.05614 10854 ft 284 kts 281°
2026-05-06 19:04 51.34342 -0.08703 10600 ft 281 kts 281°
2026-05-06 19:04 51.34673 -0.11776 10360 ft 279 kts 281°
2026-05-06 19:04 51.35000 -0.14835 10114 ft 277 kts 281°
2026-05-06 19:04 51.35314 -0.17824 9877 ft 275 kts 281°
2026-05-06 19:05 51.35628 -0.20839 9610 ft 274 kts 281°
2026-05-06 19:05 51.35938 -0.23837 9341 ft 273 kts 281°
2026-05-06 19:05 51.36249 -0.26824 9081 ft 273 kts 281°
2026-05-06 19:05 51.36562 -0.29815 8808 ft 270 kts 281°
2026-05-06 19:06 51.36867 -0.32752 8548 ft 267 kts 281°
2026-05-06 19:06 51.37167 -0.35668 8285 ft 264 kts 281°
2026-05-06 19:06 51.37469 -0.38561 8021 ft 263 kts 281°
2026-05-06 19:06 51.37771 -0.41434 7753 ft 261 kts 281°
2026-05-06 19:07 51.38074 -0.44304 7505 ft 259 kts 281°
2026-05-06 19:07 51.38268 -0.46178 7343 ft 258 kts 281°
2026-05-06 19:07 51.38649 -0.49908 7108 ft 252 kts 281°
2026-05-06 19:07 51.38928 -0.52660 7047 ft 250 kts 281°
2026-05-06 19:08 51.39208 -0.55399 7023 ft 248 kts 281°
2026-05-06 19:08 51.39479 -0.58103 7016 ft 244 kts 281°
2026-05-06 19:08 51.39741 -0.60781 7007 ft 242 kts 281°
2026-05-06 19:08 51.39919 -0.63453 7006 ft 243 kts 270°
2026-05-06 19:09 51.39806 -0.66197 7034 ft 250 kts 266°
2026-05-06 19:09 51.39634 -0.68992 6987 ft 252 kts 266°
2026-05-06 19:09 51.39451 -0.71772 6703 ft 256 kts 265°
2026-05-06 19:09 51.39266 -0.74617 6390 ft 257 kts 265°
2026-05-06 19:10 51.39084 -0.77466 6053 ft 258 kts 265°
2026-05-06 19:10 51.38895 -0.80328 5681 ft 259 kts 266°
2026-05-06 19:10 51.38703 -0.83243 5159 ft 266 kts 266°
2026-05-06 19:10 51.38505 -0.86217 4725 ft 270 kts 266°
2026-05-06 19:11 51.38297 -0.89213 4299 ft 272 kts 265°
2026-05-06 19:11 51.38208 -0.91195 4055 ft 265 kts 274°
2026-05-06 19:11 51.39028 -0.94590 4013 ft 241 kts 314°
2026-05-06 19:11 51.40395 -0.95989 4006 ft 231 kts 346°
2026-05-06 19:12 51.41439 -0.96249 3922 ft 224 kts 358°
2026-05-06 19:12 51.42954 -0.95812 3539 ft 224 kts 27°
2026-05-06 19:12 51.44101 -0.94186 3166 ft 218 kts 51°
2026-05-06 19:12 51.44929 -0.92240 3110 ft 203 kts 55°
2026-05-06 19:13 51.45659 -0.90396 3034 ft 189 kts 55°
2026-05-06 19:13 51.46343 -0.88648 3025 ft 189 kts 56°
2026-05-06 19:13 51.47037 -0.86868 3018 ft 187 kts 59°
2026-05-06 19:13 51.47367 -0.84896 3024 ft 183 kts 81°
2026-05-06 19:14 51.47510 -0.82848 3022 ft 186 kts 82°
2026-05-06 19:14 51.47596 -0.80772 3023 ft 186 kts 84°
2026-05-06 19:14 51.47631 -0.78694 3021 ft 186 kts 86°
2026-05-06 19:14 51.47645 -0.76629 3008 ft 180 kts 86°
2026-05-06 19:15 51.47652 -0.74712 3014 ft 164 kts 86°
2026-05-06 19:15 51.47659 -0.72932 3004 ft 157 kts 86°
2026-05-06 19:15 51.47667 -0.71186 2938 ft 158 kts 86°
2026-05-06 19:15 51.47672 -0.69422 2730 ft 157 kts 86°
2026-05-06 19:16 51.47678 -0.67742 2504 ft 146 kts 86°
2026-05-06 19:16 51.47684 -0.66170 2349 ft 141 kts 85°
2026-05-06 19:16 51.47692 -0.64564 2133 ft 144 kts 86°
2026-05-06 19:16 51.47696 -0.62968 1930 ft 143 kts 85°
2026-05-06 19:17 51.47704 -0.61255 1741 ft 158 kts 86°
2026-05-06 19:17 51.47708 -0.59546 1496 ft 147 kts 86°
2026-05-06 19:17 51.47714 -0.57950 1307 ft 142 kts 85°
2026-05-06 19:17 51.47720 -0.56351 1123 ft 144 kts 85°
2026-05-06 19:18 51.47726 -0.54765 898 ft 141 kts 85°
2026-05-06 19:18 51.47731 -0.53226 686 ft 139 kts 88°
2026-05-06 19:18 51.47732 -0.51683 518 ft 140 kts 86°
2026-05-06 19:18 51.47742 -0.50129 345 ft 137 kts 86°
2026-05-06 19:19 51.47746 -0.48652 147 ft 127 kts 86°
2026-05-06 19:19 51.47758 -0.47331 95 ft 104 kts 90°
2026-05-06 19:19 51.47757 -0.46413 102 ft 60 kts 89°
2026-05-06 19:19 51.47759 -0.45829 93 ft 50 kts 89°
2026-05-06 19:20 51.47753 -0.45542 94 ft 16 kts 109°
2026-05-06 19:20 51.47657 -0.45469 92 ft 16 kts 178°
2026-05-06 19:20 51.47611 -0.45467 93 ft 2 kts 179°
2026-05-06 19:21 51.47561 -0.45464 94 ft 19 kts 173°
2026-05-06 19:21 51.47506 -0.45288 97 ft 20 kts 91°
2026-05-06 19:22 51.47506 -0.45070 99 ft 20 kts 89°
2026-05-06 19:22 51.47508 -0.44848 97 ft 20 kts 89°
2026-05-06 19:22 51.47506 -0.44626 100 ft 20 kts 96°
2026-05-06 19:22 51.47504 -0.44399 97 ft 21 kts 89°
2026-05-06 19:23 51.47506 -0.44181 98 ft 13 kts 89°
2026-05-06 19:23 51.47468 -0.44069 99 ft 13 kts 166°
2026-05-06 19:23 51.47372 -0.44059 96 ft 15 kts 181°
2026-05-06 19:23 51.47268 -0.44061 98 ft 15 kts 179°
2026-05-06 19:24 51.47161 -0.44057 93 ft 16 kts 178°
2026-05-06 19:24 51.47103 -0.44114 93 ft 8 kts 259°
2026-05-06 19:24 51.47101 -0.44189 92 ft 3 kts 270°
2026-05-06 19:24 51.47101 -0.44202 96 ft 1 kts 270°
2026-05-06 19:25 51.47101 -0.44212 95 ft 0 kts 270°
2026-05-06 19:25 51.47101 -0.44213 95 ft 0 kts 270°